Overview Statistics Trail Chart Weather Telemetry Raw packets
 

This is the latest recevied weather packets stored in our database for station/object KF7U. If no packets are shown the sender has not sent any weather packets the latest 10 day(s).

<< 64 65 66 67 68 69 70 >>
Time Temp. Humidity Pressure Rain* Wind** Luminosity Snow
1788217687 32.22° C 42% 1014.2 hPa 0 mm - - -
1788217388 32.22° C 40% 1014.2 hPa 0 mm - - -
1788217087 32.22° C 42% 1014.2 hPa 0 mm - - -
1788216788 31.67° C 42% 1014.2 hPa 0 mm - - -
1788216488 31.67° C 43% 1014.2 hPa 0 mm - - -
1788216187 31.67° C 42% 1014.6 hPa 0 mm - - -
1788215888 31.67° C 42% 1014.6 hPa 0 mm - - -
1788215588 31.67° C 44% 1014.6 hPa 0 mm - - -
1788215287 31.67° C 44% 1014.9 hPa 0 mm - - -
1788214988 31.67° C 45% 1014.9 hPa 0 mm - - -
1788214688 31.67° C 45% 1015.2 hPa 0 mm - - -
1788214387 31.11° C 44% 1015.2 hPa 0 mm - - -
1788214088 31.11° C 44% 1015.2 hPa 0 mm - - -
1788213788 31.11° C 43% 1015.6 hPa 0 mm - - -
1788213488 31.11° C 44% 1015.6 hPa 0 mm - - -
1788213187 31.11° C 45% 1015.9 hPa 0 mm - - -
1788212888 30.56° C 49% 1016.3 hPa 0 mm - - -
1788212587 30° C 46% 1016.3 hPa 0 mm - - -
1788212289 30° C 45% 1016.3 hPa 0 mm - - -
1788211987 30.56° C 49% 1016.3 hPa 0 mm - - -
1788211687 30° C 50% 1016.6 hPa 0 mm - - -
1788211387 30° C 48% 1016.6 hPa 0 mm - - -
1788211088 30.56° C 47% 1016.6 hPa 0 mm - - -
1788210787 30.56° C 48% 1016.6 hPa 0 mm - - -
1788210488 30° C 48% 1016.6 hPa 0 mm - - -

* Rain latest hour (hover to see other rain measurements)
** Current wind speed in m/s (hover to see current wind gust speed)